SAVIL Weather Reports


Display with metric or nautical units.
time (UTC)temp
F
wind
direction
speed
MPH
gust
MPH
rain 1hr
in
rain 24hr
in
rain mn
in
humidity
%
barometer
mb
20260505112713 47 293 10.0 21.0 0.00 0.05 0.04 44 997.7
20260505110713 47 285 10.0 20.0 0.00 0.05 0.04 45 997.5
20260505100713 44 263 9.0 20.0 0.00 0.05 0.04 65 997.0
20260505094713 44 227 9.0 15.0 0.00 0.05 0.04 71 997.0
20260505092713 43 233 7.0 13.0 0.00 0.05 0.04 74 997.1
20260505090713 42 239 9.0 15.0 0.00 0.05 0.04 79 997.1
20260505084713 40 242 7.0 12.0 0.03 0.05 0.04 81 997.0
20260505082712 39 234 7.0 14.0 0.03 0.05 0.04 85 997.2
20260505080712 38 196 6.0 12.0 0.03 0.05 0.04 88 997.0
20260505074712 37 235 7.0 11.0 0.01 0.02 0.01 89 997.5
20260505072712 37 286 7.0 14.0 0.01 0.02 0.01 87 997.5
20260505070712 39 319 9.0 18.0 0.01 0.02 0.01 82 997.3
20260505064712 40 303 8.0 12.0 0.00 0.01 0.00 79 997.1
20260505062712 42 293 5.0 11.0 0.00 0.01 0.00 68 996.9
20260505060712 43 269 6.0 13.0 0.00 0.01 0.00 67 996.8
20260505054712 43 254 6.0 12.0 0.00 0.01 0.00 68 996.8
20260505052712 43 240 6.0 12.0 0.00 0.01 0.00 68 996.9
20260505050712 43 263 5.0 10.0 0.00 0.01 0.00 70 996.6
20260505040712 42 252 6.0 11.0 0.00 0.01 0.00 75 997.0
20260505034712 41 274 5.0 11.0 0.00 0.01 0.00 73 997.1
20260505032712 41 316 5.0 9.0 0.00 0.01 0.00 74 996.6
20260505030712 41 296 7.0 14.0 0.00 0.01 0.00 73 997.1
20260505024711 41 276 7.0 14.0 0.00 0.01 0.00 74 997.5
20260505022711 42 281 7.0 12.0 0.00 0.01 0.00 75 997.0
20260505020711 42 280 6.0 11.0 0.00 0.01 0.00 75 996.6
20260505014711 43 274 7.0 16.0 0.00 0.01 0.00 73 996.5
20260505012711 44 280 8.0 16.0 0.00 0.01 0.00 71 996.4
20260505010711 44 249 4.0 9.0 0.00 0.01 0.00 72 996.4
20260505004711 44 258 5.0 13.0 0.00 0.01 0.00 72 996.3
20260505002711 44 237 5.0 8.0 0.00 0.01 0.00 71 996.3
20260505000711 44 258 5.0 11.0 0.00 0.01 0.00 72 996.3
20260504234711 44 255 6.0 12.0 0.00 0.01 0.00 72 996.3
20260504232711 45 259 8.0 14.0 0.00 0.01 0.00 71 996.3
20260504230711 45 256 7.0 16.0 0.00 0.01 0.00 69 996.3
20260504224711 46 239 7.0 16.0 0.00 0.01 0.00 66 996.2
20260504222710 47 251 7.0 13.0 0.00 0.01 0.00 63 996.1
20260504220711 47 248 7.0 13.0 0.00 0.01 0.00 63 996.2
20260504214710 48 256 7.0 18.0 0.00 0.01 0.00 61 996.1
20260504212710 48 232 9.0 14.0 0.00 0.01 0.00 60 995.9
20260504210710 48 234 10.0 17.0 0.00 0.01 0.00 60 995.8
20260504204710 48 227 9.0 16.0 0.00 0.01 0.01 62 996.0
20260504202710 48 223 8.0 15.0 0.00 0.01 0.01 63 995.9
20260504200710 48 216 5.0 11.0 0.00 0.01 0.01 67 995.9
20260504194710 48 205 4.0 8.0 0.00 0.01 0.01 72 996.0
20260504192710 48 188 4.0 6.0 0.00 0.01 0.01 77 995.9
20260504190710 48 192 4.0 7.0 0.00 0.01 0.01 78 996.2
20260504184710 48 207 3.0 5.0 0.00 0.01 0.01 85 996.4
20260504182710 49 165 4.0 6.0 0.00 0.01 0.01 83 996.4
20260504180710 50 154 4.0 7.0 0.00 0.01 0.01 80 996.3
20260504174709 51 150 5.0 10.0 0.00 0.01 0.01 79 996.4
20260504172709 51 152 4.0 7.0 0.00 0.01 0.01 80 996.5
20260504170709 52 154 5.0 10.0 0.00 0.01 0.01 78 996.6
20260504150709 53 138 5.0 11.0 0.00 0.01 0.01 74 997.7
20260504140709 52 176 4.0 9.0 0.00 0.01 0.01 78 998.5
20260504130708 51 208 8.0 23.0 0.01 0.01 0.01 75 999.4